Change the Weather History Date:

Monday, March 18, 2013

  Actual Average Record
Temperature  
Mean Temperature 17 °F -  
Max Temperature 28 °F 35 °F 71 °F (2012)
Min Temperature 6 °F 16 °F 6 °F (2013)
Degree Days  
Heating Degree Days 48    
Moisture  
Dew Point 13 °F    
Average Humidity 86    
Maximum Humidity 100    
Minimum Humidity 73    
Precipitation  
Precipitation 0.05 in - - ()
Sea Level Pressure  
Sea Level Pressure 29.60 in    
Wind  
Wind Speed 16 mph (WSW)    
Max Wind Speed 28 mph    
Max Gust Speed 38 mph    
Visibility 4 miles    
Events Snow    
Averages and records for this station are not official NWS values.
T = Trace of Precipitation, MM = Missing Value Source: NWS Daily Summary

Daily Weather History Graph

Daily Weather History Graph

Search for Another Location

Airport or City:

Trip Planner

Search our weather history database for the weather conditions in past years. The results will help you decide how hot, cold, wet, or windy it might be!

Date:

Astronomy

Mar. 18, 2013 Rise Set
Actual Time 7:25 AM CDT 7:29 PM CDT
Civil Twilight 6:55 AM CDT 7:59 PM CDT
Nautical Twilight 6:20 AM CDT 8:34 PM CDT
Astronomical Twilight 5:44 AM CDT 9:10 PM CDT
Moon 11:06 AM CDT (3/18) 1:48 AM CDT (3/18)
Length of Visible Light 13h 03m
Length of Day
12h 03m
Waxing Crescent, 41% of the Moon is Illuminated
Mar 18
Waxing Crescent
Mar 19
First Quarter
Mar 27
Full
Apr 2
Last Quarter
Apr 10
New

Hourly Weather History & Observations

Time (CDT) Temp. Windchill Dew Point Humidity Pressure Visibility Wind Dir Wind Speed Gust Speed Precip Events Conditions
12:13 AM 17.6 °F 4.3 °F 17.6 °F 100% 29.67 in 1.2 mi SE 12.7 mph 23.0 mph N/A Snow Light Snow
12:34 AM 19.4 °F 5.5 °F 17.6 °F 93% 29.66 in 1.8 mi SE 15.0 mph 25.3 mph N/A Snow Light Snow
12:53 AM 19.4 °F 6.0 °F 17.6 °F 93% 29.66 in 1.2 mi SE 13.8 mph 18.4 mph 0.01 in Snow Light Snow
1:13 AM 19.4 °F 8.6 °F 17.6 °F 93% 29.67 in 1.0 mi SSE 9.2 mph 17.3 mph 0.01 in Snow Light Snow
1:34 AM 19.4 °F 9.5 °F 19.4 °F 100% 29.66 in 1.5 mi SE 8.1 mph - 0.01 in Snow Light Snow
1:53 AM 19.4 °F 9.5 °F 17.6 °F 93% 29.65 in 1.8 mi SE 8.1 mph - 0.02 in Snow Light Snow
2:13 AM 19.4 °F 8.6 °F 19.4 °F 100% 29.64 in 2.0 mi SE 9.2 mph 17.3 mph N/A Snow Light Snow
2:34 AM 19.4 °F 8.6 °F 19.4 °F 100% 29.63 in 1.8 mi SE 9.2 mph - N/A Snow Light Snow
2:53 AM 19.4 °F 7.9 °F 19.4 °F 100% 29.62 in 2.5 mi SE 10.4 mph - N/A Snow Light Snow
3:13 AM 21.2 °F 10.1 °F 19.4 °F 93% 29.60 in 2.0 mi SE 10.4 mph 17.3 mph 0.01 in Snow Light Snow
3:33 AM 21.2 °F 10.9 °F 19.4 °F 93% 29.59 in 2.0 mi SE 9.2 mph - 0.01 in Snow Light Snow
3:53 AM 21.2 °F 10.1 °F 19.4 °F 93% 29.57 in 2.5 mi SE 10.4 mph - 0.01 in Snow Light Snow
4:14 AM 21.2 °F 8.3 °F 21.2 °F 100% 29.55 in 4.0 mi SSE 13.8 mph 18.4 mph N/A Snow Light Snow
4:33 AM 23.0 °F 9.6 °F 21.2 °F 93% 29.54 in 4.0 mi SE 16.1 mph 21.9 mph N/A Snow Light Snow
4:53 AM 24.8 °F 12.9 °F 21.2 °F 86% 29.52 in 2.5 mi SE 13.8 mph 21.9 mph N/A Snow Light Snow
5:14 AM 24.8 °F 12.9 °F 23.0 °F 93% 29.50 in 1.8 mi SE 13.8 mph 18.4 mph 0.01 in Snow Light Snow
5:33 AM 24.8 °F 12.4 °F 23.0 °F 93% 29.48 in 3.0 mi SE 15.0 mph 23.0 mph 0.01 in Snow Light Snow
5:53 AM 24.8 °F 12.9 °F 24.8 °F 100% 29.47 in 3.0 mi SE 13.8 mph 20.7 mph 0.01 in Snow Light Snow
6:14 AM 26.6 °F 15.7 °F 24.8 °F 93% 29.47 in 2.0 mi SSE 12.7 mph 25.3 mph N/A Snow Light Snow
6:33 AM 26.6 °F 13.8 °F 24.8 °F 93% 29.45 in 5.0 mi SSE 17.3 mph 23.0 mph N/A Snow Light Snow
6:53 AM 26.6 °F 15.2 °F 26.6 °F 100% 29.44 in 5.0 mi SSE 13.8 mph 21.9 mph N/A   Overcast
7:13 AM 26.6 °F 14.3 °F 26.6 °F 100% 29.43 in 5.0 mi SSE 16.1 mph 20.7 mph N/A   Overcast
7:33 AM 28.4 °F 15.1 °F 26.6 °F 93% 29.43 in 3.0 mi South 20.7 mph 25.3 mph N/A   Overcast
7:53 AM 24.8 °F 10.7 °F 23.0 °F 93% 29.44 in 2.5 mi South 19.6 mph 25.3 mph N/A   Overcast
8:13 AM 24.8 °F 11.1 °F 21.2 °F 86% 29.45 in 4.0 mi SSW 18.4 mph 25.3 mph N/A   Overcast
8:33 AM 21.2 °F 6.4 °F 19.4 °F 93% 29.46 in 4.0 mi SSW 18.4 mph 26.5 mph N/A   Overcast
8:53 AM 19.4 °F 4.5 °F 17.6 °F 93% 29.47 in 3.0 mi SW 17.3 mph 31.1 mph N/A   Overcast
9:13 AM 19.4 °F 4.5 °F 15.8 °F 86% 29.48 in 7.0 mi SW 17.3 mph - N/A   Overcast
9:33 AM 17.6 °F 3.7 °F 15.8 °F 93% 29.49 in 5.0 mi SW 13.8 mph 19.6 mph N/A   Overcast
9:53 AM 17.6 °F 4.3 °F 14.0 °F 86% 29.49 in 5.0 mi SW 12.7 mph 19.6 mph N/A   Overcast
10:13 AM 17.6 °F 3.2 °F 12.2 °F 79% 29.50 in 4.0 mi WSW 15.0 mph 18.4 mph N/A Snow Light Snow
10:33 AM 15.8 °F 0.3 °F 10.4 °F 79% 29.51 in 4.0 mi WSW 16.1 mph 24.2 mph N/A Snow Light Snow
10:53 AM 15.8 °F 0.3 °F 10.4 °F 79% 29.52 in 2.5 mi WSW 16.1 mph 19.6 mph N/A Snow Light Snow
11:13 AM 15.8 °F 1.4 °F 10.4 °F 79% 29.53 in 3.0 mi WSW 13.8 mph 20.7 mph N/A Snow Light Snow
11:33 AM 15.8 °F 1.4 °F 8.6 °F 73% 29.53 in 7.0 mi WSW 13.8 mph 19.6 mph N/A Snow Light Snow
11:53 AM 15.8 °F 0.3 °F 10.4 °F 79% 29.54 in 5.0 mi West 16.1 mph 25.3 mph N/A Snow Light Snow
12:13 PM 15.8 °F -1.5 °F 10.4 °F 79% 29.54 in 3.0 mi West 20.7 mph 24.2 mph N/A Snow Light Snow
12:33 PM 15.8 °F -2.7 °F 10.4 °F 79% 29.54 in 2.0 mi West 24.2 mph 29.9 mph N/A Snow Light Snow
12:53 PM 15.8 °F -1.5 °F 10.4 °F 79% 29.55 in 2.0 mi West 20.7 mph 26.5 mph N/A Snow Light Snow
1:13 PM 15.8 °F -1.5 °F 10.4 °F 79% 29.55 in 2.5 mi West 20.7 mph 26.5 mph N/A Snow Light Snow
1:33 PM 15.8 °F -2.7 °F 10.4 °F 79% 29.55 in 2.5 mi West 24.2 mph 28.8 mph N/A Snow Light Snow
1:53 PM 15.8 °F -2.7 °F 10.4 °F 79% 29.56 in 1.8 mi West 24.2 mph 34.5 mph N/A Snow Light Snow
2:13 PM 15.8 °F -2.7 °F 10.4 °F 79% 29.56 in 1.5 mi West 24.2 mph - N/A Snow Light Snow
2:33 PM 15.8 °F -2.3 °F 10.4 °F 79% 29.56 in 2.0 mi West 23.0 mph 29.9 mph N/A Snow Light Snow
2:53 PM 15.8 °F -1.9 °F 10.4 °F 79% 29.57 in 1.8 mi West 21.9 mph 29.9 mph N/A Snow Light Snow
3:13 PM 15.8 °F -2.7 °F 10.4 °F 79% 29.57 in 2.0 mi WNW 24.2 mph 31.1 mph N/A Snow Light Snow
3:33 PM 15.8 °F -2.7 °F 10.4 °F 79% 29.58 in 1.8 mi WNW 24.2 mph 35.7 mph N/A Snow Light Snow
3:53 PM 15.8 °F -2.3 °F 10.4 °F 79% 29.59 in 2.5 mi WNW 23.0 mph 28.8 mph N/A Snow Light Snow
4:13 PM 15.8 °F -2.7 °F 10.4 °F 79% 29.59 in 2.5 mi West 24.2 mph 32.2 mph N/A Snow Light Snow
4:33 PM 15.8 °F -3.4 °F 10.4 °F 79% 29.60 in 2.0 mi WNW 26.5 mph 32.2 mph N/A   Haze
4:53 PM 15.8 °F -3.4 °F 10.4 °F 79% 29.61 in 2.5 mi WNW 26.5 mph 31.1 mph N/A   Haze
5:13 PM 15.8 °F -3.7 °F 10.4 °F 79% 29.62 in 2.0 mi WNW 27.6 mph 34.5 mph N/A Snow Light Snow
5:33 PM 14.0 °F -5.8 °F 8.6 °F 79% 29.63 in 1.2 mi WNW 26.5 mph 38.0 mph N/A Snow Light Snow
5:53 PM 14.0 °F -5.1 °F 8.6 °F 79% 29.65 in 3.0 mi WNW 24.2 mph 32.2 mph N/A Snow Light Snow
6:13 PM 14.0 °F -3.0 °F 8.6 °F 79% 29.66 in 4.0 mi WNW 18.4 mph 29.9 mph N/A Snow Light Snow
6:34 PM 12.2 °F -5.3 °F 8.6 °F 85% 29.67 in 4.0 mi WNW 18.4 mph 25.3 mph N/A Snow Light Snow
6:53 PM 12.2 °F -6.7 °F 8.6 °F 85% 29.67 in 3.0 mi WNW 21.9 mph 27.6 mph N/A Snow Light Snow
7:13 PM 10.4 °F -7.2 °F 6.8 °F 85% 29.69 in 2.5 mi WNW 17.3 mph 34.5 mph N/A Snow Light Snow
7:34 PM 10.4 °F -7.2 °F 6.8 °F 85% 29.70 in 5.0 mi WNW 17.3 mph 27.6 mph N/A Snow Light Snow
7:53 PM 10.4 °F -8.6 °F 6.8 °F 85% 29.71 in 5.0 mi WNW 20.7 mph 28.8 mph N/A   Haze
8:13 PM 10.4 °F -8.6 °F 5.0 °F 79% 29.73 in 10.0 mi WNW 20.7 mph 26.5 mph N/A   Overcast
8:34 PM 10.4 °F -8.6 °F 5.0 °F 79% 29.74 in 7.0 mi WNW 20.7 mph 26.5 mph N/A   Overcast
8:53 PM 8.6 °F -10.5 °F 3.2 °F 79% 29.75 in 7.0 mi NW 19.6 mph 31.1 mph N/A   Overcast
9:13 PM 8.6 °F -12.3 °F 3.2 °F 79% 29.75 in 7.0 mi WNW 24.2 mph 29.9 mph N/A   Overcast
9:34 PM 8.6 °F -11.0 °F 3.2 °F 79% 29.76 in 10.0 mi WNW 20.7 mph - N/A   Overcast
9:53 PM 8.6 °F -10.5 °F 3.2 °F 79% 29.77 in 7.0 mi WNW 19.6 mph 29.9 mph N/A   Mostly Cloudy
10:13 PM 8.6 °F -10.5 °F 3.2 °F 79% 29.78 in 7.0 mi WNW 19.6 mph 28.8 mph N/A   Scattered Clouds
10:53 PM 6.8 °F -12.4 °F 1.4 °F 79% 29.79 in 10.0 mi WNW 18.4 mph 25.3 mph N/A   Scattered Clouds
11:14 PM 6.8 °F -12.4 °F 1.4 °F 79% 29.80 in 10.0 mi WNW 18.4 mph 25.3 mph N/A   Mostly Cloudy
11:33 PM 6.8 °F -14.3 °F 1.4 °F 79% 29.80 in 10.0 mi WNW 23.0 mph 29.9 mph N/A   Overcast
11:53 PM 6.8 °F -11.8 °F 1.4 °F 79% 29.80 in 10.0 mi WNW 17.3 mph 23.0 mph N/A   Mostly Cloudy